Regional Weather Roundup
Issued by NWS Wakefield, VA

Home | Current Version | Previous Version | Graphics & Text | Print | Product List | Glossary On
Versions: 1 2 3 4 5 6 7 8 9 10 11 12 13 14 15 16 17 18 19 20 21 22 23 24 25 26 27 28 29 30 31 32 33 34 35 36 37 38 39 40 41 42 43 44 45 46 47 48 49 50
682
ASUS41 KAKQ 070615
RWRAKQ

REGIONAL WEATHER ROUNDUP
NATIONAL WEATHER SERVICE WAKEFIELD VA
100 AM EST WED DEC 07 2016

Note: "fair" indicates few or no clouds below 12,000 feet with no
significant weather and/or obstructions to visibility. * = Denotes
station may not report precipitation (e.g., rain,snow,etc.),
thunder or fog.

VAZ042-051-052>054-056-070700-
NORTHERN VIRGINIA

CITY           SKY/WX    TMP DP  RH WIND       PRES   REMARKS
WASH NATIONAL  CLOUDY    45  43  93 N10       29.84S
DULLES         CLOUDY    40  39  97 NW9       29.86R FOG
FORT BELVOIR   CLOUDY    43  41  93 NW9       29.84R
QUANTICO       CLOUDY    43  40  89 NW10      29.86R
FREDERICKSBRG* CLOUDY    43  43 100 NW5       29.85R
STAFFORD*      CLOUDY    41  41 100 NW7       29.89R
WARRENTON      CLOUDY    42  37  82 NW5       29.86R
CULPEPER*      CLOUDY    42  40  93 CALM      29.88R
MANASSAS*        N/A    N/A N/A N/A MISG        N/A
LEESBURG*      CLOUDY    41  41 100 NW8       29.88R
WINCHESTER     CLOUDY    36  36 100 CALM      29.87R FOG
FRONT ROYAL*   CLOUDY    36  36 100 CALM      29.87R
LURAY*         CLOUDY    37  37 100 CALM      29.88R FOG
$$

VAZ048-049-060>072-079>083-070700-
CENTRAL AND SOUTH CENTRAL VIRGINIA

CITY           SKY/WX    TMP DP  RH WIND       PRES   REMARKS
RICHMOND       CLOUDY    43  42  97 NW9       29.83R
CHESTERFIELD*  CLOUDY    43  28  56 NW9       29.85R
PETERSBURG*    CLOUDY    42  41  94 NW7       29.85R
HANOVER        CLOUDY    43  40  89 NW9       29.85R
TAPPAHANNOCK*  CLOUDY    46  46 100 NW8       29.81F
QUINTON*       CLOUDY    44  43  99 NW6       29.81S
CHARLOTTSVILLE CLOUDY    43  39  86 VRB3      29.87R
GORDONSVILLE*  CLOUDY    43  41  92 CALM      29.86R
ORANGE*          N/A     43  43 100 CALM      29.88R
LOUISA*        CLOUDY    45  43  93 NW5       29.85R
BUMPASS*       CLOUDY    42  42 100 CALM      29.85R
FARMVILLE*     CLOUDY    43  42  97 CALM      29.86R
CREWE*         CLOUDY    42  42 100 NW6       29.86R
FORT PICKETT*  CLOUDY    42  38  87 NW7       29.85R
CHASE CITY*    CLOUDY    42  40  95 CALM      29.87R
CLARKSVILLE*   CLOUDY    43  43 100 CALM      29.87R
SOUTH HILL*    CLOUDY    42  42  99 NW3       29.92R
LAWRENCEVILLE* CLOUDY    42  41  96 NW6       29.85R
EMPORIA*       CLOUDY    43  41  93 W5        29.86R
$$

VAZ088>098-070700-
SOUTHEAST VIRGINIA

CITY           SKY/WX    TMP DP  RH WIND       PRES   REMARKS
NORFOLK        LGT RAIN  48  46  93 NW9G17    29.77R
VIRGINIA BEACH CLOUDY    48  46  93 NW13      29.75R
NORFOLK NAVAL  CLOUDY    48  45  89 NW18      29.78R
WEST POINT*    CLOUDY    45  45  98 NW6       29.81F
SALUDA*        CLOUDY    46  46 100 NW8       29.79R
NEWPORT NEWS   CLOUDY    47  45  93 NW10      29.79R
LANGLEY AFB    CLOUDY    46  46 100 NW12      29.77R
FORT EUSTIS    CLOUDY    46  44  91 NW12      29.76R
WILLIAMSBURG*  CLOUDY    46  46 100 NW7       29.80S
HR EXEC AP*    CLOUDY    46  43  87 NW9       29.77R
FRANKLIN*      CLOUDY    44  42  92 NW6       29.82S
US460-WAKEFLD  CLOUDY    45  44  97 VRB3      29.81S
$$

VAZ020-022-025-037-045-070700-
WEST CENTRAL AND SOUTHWEST VIRGINIA

CITY           SKY/WX    TMP DP  RH WIND       PRES   REMARKS
STAUNTON*      CLOUDY    36  36  99 CALM      29.90R FOG
WAYNESBORO*    CLOUDY    36  34  95 CALM      29.86R
HOT SPRINGS VA NOT AVBL
LYNCHBURG      FOG       33  33 100 CALM      29.86S VSB 3/4
DANVILLE       CLEAR     35  35 100 CALM      29.89R
SOUTH BOSTON*  FAIR      39  38  95 CALM      29.89R
MARTINSVILLE   PTCLDY    32  32 100 CALM      29.90S FOG
ROANOKE        CLOUDY    43  40  89 N5        29.88S
BLACKSBURG     CLOUDY    44  42  91 W6        29.90F
DUBLIN*        CLOUDY    47  41  79 W14G22    29.90S
MARION*        CLOUDY    45  39  79 W13       29.93R
HILLSVILLE*    MOCLDY    43  40  88 NW9G17    29.86R
RICHLANDS*     CLOUDY    41  39  93 NW7       29.94R
WISE*          CLOUDY    41  41 100 NW6       29.97R
ABINGDON*      CLOUDY    47  39  75 N9        29.95R
$$

MDZ021>025-VAZ099-100-070700-
SOUTHERN MARYLAND AND THE DELMARVA PENINSULA

CITY           SKY/WX    TMP DP  RH WIND       PRES   REMARKS
PATUXENT RIVER LGT RAIN  46  45  96 N14       29.80R FOG
BAY BRIDGE APT CLOUDY    45  43  93 N9        29.82R
LEONARDTOWN    CLOUDY    45  43  93 CALM      29.81S
DOVER          CLOUDY    45  45 100 N12       29.77R
GEORGETOWN     CLOUDY    48  48 100 N12       29.75R
EASTON         CLOUDY    45  42  88 N10G16    29.84R
CAMBRIDGE      CLOUDY    43  43 100 NW9       29.79R
SALISBURY      CLOUDY    49  47  93 N10       29.73R
OCEAN CITY     LGT RAIN  49  49 100 NE15G26   29.69R
WALLOPS ISLAND LGT RAIN  50  50 100 N14G20    29.71R
ACCOMACK*      DRIZZLE   49  48  95 N12G22    29.71R
$$

NCZ012>017-030>032-070700-
NORTH CENTRAL AND EASTERN NORTH CAROLINA

CITY           SKY/WX    TMP DP  RH WIND       PRES   REMARKS
ROANOKE RAPIDS CLOUDY    43  43 100 W3        29.85R
RALEIGH        CLOUDY    44  41  89 VRB3      29.89R
ELIZABETH CITY CLOUDY    47  45  93 W20G26    29.78R
AHOSKIE*       CLOUDY    43  42  95 NW3       29.83F
EDENTON*       CLOUDY    47  45  90 NW12G21   29.81S
CURRITUCK*     CLOUDY    48  48 100 W10G17    29.77R
KILL DEVIL HLS CLOUDY    48  48 100 W13G23    29.74R
MANTEO         CLOUDY    47  46  96 NW18G26   29.76R
CAPE HATTERAS  MOCLDY    50  47  89 W12G26    29.77R
TARBORO*       NOT AVBL
GOLDSBORO      CLOUDY    44  44 100 W10       29.86R
WASHINGTON     CLOUDY    44  42  93 W10       29.84R
GREENVILLE     CLOUDY    45  43  93 NW8       29.88R
NEW BERN       MOCLDY    47  43  86 W10       29.85R
WILMINGTON     CLOUDY    49  48  97 NW8       29.87S
$$

VAZ048-070700-
ELSEWHERE

CITY           SKY/WX    TMP DP  RH WIND       PRES   REMARKS
HARRISBURG PA  DRIZZLE   38  38 100 N3        29.85S FOG
BALTIMORE      DRIZZLE   43  43 100 N3        29.82F
ANNAPOLIS      CLOUDY    46  43  89 N7        29.81S
ANDREWS AFB    CLOUDY    43  42  94 N7        29.80F
PHILADELPHIA   LGT RAIN  42  39  89 N16       29.82R
HENDERSON NC   CLOUDY    40  38  95 NW3       29.87R
GREENSBORO     CLEAR     38  38 100 W3        29.88R
ROCKY MOUNT    CLOUDY    43  43 100 NW7       29.88R
$$

VAZ100-070700-
MARINE

STATION/POSITION TIME  TEMP    WIND        PRES    WAVE   SWELL
                       AIR SEA DIR/SP/G            HT/PER HT/PER
                 (UTC) (F)     (DEG/KT/KT) (MB)    (FT/S) (FT/S)
BRANDYWINE LGT   0548   47      40/ 18/ 20   N/A
CAPE MAY NJ      0548   49 48   50/  7/ 16 1005.3F
LEWES DE         0548   50 48   40/ 17/ 19 1006.2F
OCEAN-CITY-INLET 0536   49 50   30/ 15/ 20 1005.4R
WACHAPREAGUE VA  0548   49 50  300/  3/ 11 1005.7R
THOMAS POINT MD  0600   45 49  360/ 13/ 14   N/A
GOOSES REEF MD   0550   46      30/ 17/ 19 1009.9R
COVE POINT MD    0548   45     360/ 23/ 25 1009.6R
SOLOMONS ISLAND  0542   46 50  330/ 10/ 13   N/A
BISHOPS HEAD MD  0548   47 46  330/ 10/ 14 1008.2R
PINEY POINT MD   0548          350/ 14/ 15   N/A
POTOMAC MD       0550   47     330/ 14/ 17 1007.9R
CAMBRIDGE MD     0548   46 47  330/ 11/ 13 1007.8R
LEWISETTA VA     0548   47 48  350/ 11/ 16 1008.6R
RAPPAHANNOCK LGT 0548          320/ 25/ 28 1007.3R
STINGRAY PT      0550   48     330/ 16/ 19 1008.0R
YORK RVR RNG VA  0548   48     320/ 17/ 20 1007.7R
YORKTOWN VA      0548   48 51  310/ 18/ 22 1008.2R
JAMESTOWN VA     0550   46     310/ 12/ 16   N/A
DOMINION TERM VA 0548   48     330/ 18/ 23 1008.1R
KIPTOPEKE VA     0542      52  340/ 24/ 28   N/A
CHES BAY BRIDGE  0548   49 53  310/ 22/ 25 1007.6R
CAPE HENRY VA    0548   49     300/ 21/ 27   N/A
WILLOUBY STN VA  0548   48     310/ 18/ 21 1009.0R
S CRANEY ISL VA  0548   47     300/ 12/ 20 1007.8R
CAPE HENRY BUOY  0542      55                N/A     8/11   2/11
CAPE CHARLES BUO 0556      54                N/A     8/10   2/11
OFFSHORE WE BUOY 0551      56                N/A    10/ 6   3/11
64NM E OF VA BCH 0550   55 60  300/ 31/ 39 1001.8R  11/11   7/11
DUCK PIER NC     0548   49 55  290/ 21/ 26 1006.9R
44100 DUCK FRF   0535      56                N/A     8/ 9   2/11
OREGON INLET NC  0542   49 57  280/ 19/ 26 1006.8R
HATTERAS NC      0548   51 61  290/ 25/ 27 1007.8R
DIAMOND SHLS NC  0550   58 74  300/ 27/ 33 1007.2R   8/ 5   3/11
CAPE LOOKOUT NC  0500   52     290/ 26/ 29 1008.9R
$$




USA.gov is the U.S. government's official web portal to all federal, state and local government web resources and services.